Corning, AR

9:26 AM CDT on August 19, 2017 (GMT -0500)
Corning

Weather History for K4M9 - January, 2014

Change the Weather History Date:

Friday, January 24, 2014

  Actual Average (KARG) Record (KARG)
Temperature  
Mean Temperature 19 °F -  
Max Temperature 30 °F 43 °F 64 °F (2006)
Min Temperature 8 °F 28 °F 8 °F (2003)
Degree Days  
Heating Degree Days 46    
Moisture  
Dew Point 4 °F    
Average Humidity 51    
Maximum Humidity 73    
Minimum Humidity 34    
Precipitation  
Precipitation 0.00 in - - ()
Sea Level Pressure  
Sea Level Pressure 30.46 in    
Wind  
Wind Speed 11 mph (SW)    
Max Wind Speed 26 mph    
Max Gust Speed 34 mph    
Visibility 10 miles    
Events      
Averages and records for this station are not official NWS values.
T = Trace of Precipitation, MM = Missing Value Source: NWS Daily Summary

Daily Weather History Graph

Daily Weather History Graph

Search for Another Location

Airport or City:

Trip Planner

Search our weather history database for the weather conditions in past years. The results will help you decide how hot, cold, wet, or windy it might be!

Date:

Astronomy

Jan. 24, 2014 Rise Set
Actual Time 7:09 AM CST 5:20 PM CST
Civil Twilight 6:41 AM CST 5:47 PM CST
Nautical Twilight 6:10 AM CST 6:19 PM CST
Astronomical Twilight 5:40 AM CST 6:49 PM CST
Moon 12:39 AM CST (1/24) 11:37 AM CST (1/24)
Length of Visible Light 11h 06m
Length of Day
10h 10m
Last Quarter, 44% of the Moon is Illuminated
Jan 24
Last Quarter
Jan 30
New
Feb 6
First Quarter
Feb 14
Full
Feb 22
Last Quarter

Hourly Weather History & Observations

Time (CST) Temp. Windchill Dew Point Humidity Pressure Visibility Wind Dir Wind Speed Gust Speed Precip Events Conditions
12:15 AM 10.4 °F 2.2 °F 1.4 °F 67% 30.79 in 10.0 mi West 4.6 mph - N/A   Clear
12:35 AM 10.4 °F 0.8 °F 1.4 °F 67% 30.78 in 10.0 mi West 5.8 mph - N/A   Clear
12:55 AM 10.4 °F 0.8 °F -0.4 °F 62% 30.78 in 10.0 mi West 5.8 mph - N/A   Clear
1:15 AM 10.4 °F 4.0 °F -0.4 °F 62% 30.77 in 10.0 mi West 3.5 mph - N/A   Clear
1:35 AM 10.4 °F 4.0 °F 1.4 °F 67% 30.76 in 10.0 mi WNW 3.5 mph - N/A   Clear
1:55 AM 10.4 °F 4.0 °F -0.4 °F 62% 30.77 in 10.0 mi West 3.5 mph - N/A   Clear
2:15 AM 10.4 °F 2.2 °F -0.4 °F 62% 30.77 in 10.0 mi West 4.6 mph - N/A   Clear
2:35 AM 8.6 °F 0.1 °F -0.4 °F 67% 30.76 in 10.0 mi West 4.6 mph - N/A   Clear
2:55 AM 10.4 °F 0.8 °F -0.4 °F 62% 30.75 in 10.0 mi West 5.8 mph - N/A   Clear
3:15 AM 8.6 °F -1.3 °F -0.4 °F 67% 30.74 in 10.0 mi WSW 5.8 mph - N/A   Clear
3:35 AM 10.4 °F -0.4 °F 1.4 °F 67% 30.74 in 10.0 mi WSW 6.9 mph - N/A   Clear
3:55 AM 10.4 °F 0.8 °F 1.4 °F 67% 30.73 in 10.0 mi West 5.8 mph - N/A   Clear
4:15 AM 8.6 °F -2.6 °F 1.4 °F 73% 30.73 in 10.0 mi WSW 6.9 mph - N/A   Clear
4:35 AM 10.4 °F -0.4 °F 1.4 °F 67% 30.73 in 10.0 mi WSW 6.9 mph - N/A   Clear
4:55 AM 8.6 °F -1.3 °F 1.4 °F 73% 30.72 in 10.0 mi WSW 5.8 mph - N/A   Clear
5:15 AM 8.6 °F 0.1 °F 1.4 °F 73% 30.72 in 10.0 mi WSW 4.6 mph - N/A   Clear
5:35 AM 8.6 °F 0.1 °F 1.4 °F 73% 30.71 in 10.0 mi WSW 4.6 mph - N/A   Clear
5:55 AM 8.6 °F -1.3 °F 1.4 °F 73% 30.70 in 10.0 mi WSW 5.8 mph - N/A   Clear
6:15 AM 8.6 °F -2.6 °F 1.4 °F 73% 30.70 in 10.0 mi SW 6.9 mph - N/A   Clear
6:35 AM 10.4 °F 0.8 °F -0.4 °F 62% 30.69 in 10.0 mi WSW 5.8 mph - N/A   Clear
6:55 AM 8.6 °F -2.6 °F 1.4 °F 73% 30.69 in 10.0 mi WSW 6.9 mph - N/A   Clear
7:15 AM 10.4 °F -0.4 °F -0.4 °F 62% 30.68 in 10.0 mi WSW 6.9 mph - N/A   Clear
7:35 AM 10.4 °F -1.5 °F 1.4 °F 67% 30.68 in 10.0 mi WSW 8.1 mph - N/A   Clear
7:55 AM 12.2 °F 1.7 °F -0.4 °F 57% 30.67 in 10.0 mi WSW 6.9 mph - N/A   Clear
8:15 AM 14.0 °F 1.2 °F 1.4 °F 57% 30.67 in 10.0 mi WSW 10.4 mph - N/A   Clear
8:35 AM 15.8 °F 2.7 °F 1.4 °F 53% 30.66 in 10.0 mi SW 11.5 mph - N/A   Clear
8:55 AM 15.8 °F 2.1 °F 1.4 °F 53% 30.66 in 10.0 mi SW 12.7 mph - N/A   Clear
9:15 AM 15.8 °F 0.9 °F -0.4 °F 49% 30.65 in 10.0 mi SW 15.0 mph - N/A   Clear
9:35 AM 17.6 °F 3.2 °F -0.4 °F 45% 30.65 in 10.0 mi SW 15.0 mph 18.4 mph N/A   Clear
9:55 AM 17.6 °F 3.2 °F -0.4 °F 45% 30.64 in 10.0 mi SW 15.0 mph 20.7 mph N/A   Clear
10:15 AM 19.4 °F 5.0 °F -0.4 °F 42% 30.63 in 10.0 mi SW 16.1 mph 20.7 mph N/A   Clear
10:35 AM 19.4 °F 5.0 °F 1.4 °F 46% 30.62 in 10.0 mi SW 16.1 mph 21.9 mph N/A   Clear
10:55 AM 21.2 °F 6.4 °F -0.4 °F 39% 30.60 in 10.0 mi SW 18.4 mph - N/A   Clear
11:15 AM 23.0 °F 9.6 °F -0.4 °F 36% 30.58 in 10.0 mi SW 16.1 mph 23.0 mph N/A   Clear
11:35 AM 23.0 °F 8.3 °F -0.4 °F 36% 30.56 in 10.0 mi SW 19.6 mph - N/A   Clear
11:55 AM 23.0 °F 9.2 °F 1.4 °F 39% 30.54 in 10.0 mi SSW 17.3 mph 24.2 mph N/A   Clear
12:15 PM 24.8 °F 11.9 °F 1.4 °F 36% 30.51 in 10.0 mi SW 16.1 mph - N/A   Clear
12:35 PM 24.8 °F 14.0 °F 1.4 °F 36% 30.49 in 10.0 mi SSW 11.5 mph 20.7 mph N/A   Clear
12:55 PM 26.6 °F 13.1 °F 1.4 °F 34% 30.45 in 10.0 mi SSW 19.6 mph 23.0 mph N/A   Clear
1:15 PM 26.6 °F 13.1 °F 5.0 °F 40% 30.43 in 10.0 mi SSW 19.6 mph 25.3 mph N/A   Clear
1:35 PM 28.4 °F 15.4 °F 5.0 °F 37% 30.40 in 10.0 mi SSW 19.6 mph 24.2 mph N/A   Clear
1:55 PM 28.4 °F 14.4 °F 5.0 °F 37% 30.38 in 10.0 mi SW 23.0 mph 27.6 mph N/A   Clear
2:15 PM 28.4 °F 15.8 °F 5.0 °F 37% 30.37 in 10.0 mi SW 18.4 mph 24.2 mph N/A   Clear
2:35 PM 28.4 °F 14.7 °F 5.0 °F 37% 30.35 in 10.0 mi SSW 21.9 mph 26.5 mph N/A   Clear
2:55 PM 30.2 °F 17.1 °F 5.0 °F 34% 30.33 in 10.0 mi SSW 21.9 mph - N/A   Clear
3:15 PM 30.2 °F 17.8 °F 5.0 °F 34% 30.32 in 10.0 mi SSW 19.6 mph 27.6 mph N/A   Clear
3:35 PM 30.2 °F 17.4 °F 5.0 °F 34% 30.31 in 10.0 mi SSW 20.7 mph 26.5 mph N/A   Clear
3:55 PM 30.2 °F 17.4 °F 6.8 °F 37% 30.29 in 10.0 mi SSW 20.7 mph 27.6 mph N/A   Clear
4:15 PM 30.2 °F 16.8 °F 5.0 °F 34% 30.26 in 10.0 mi SSW 23.0 mph 29.9 mph N/A   Clear
4:35 PM 28.4 °F 14.4 °F 6.8 °F 40% 30.23 in 10.0 mi South 23.0 mph 31.1 mph N/A   Clear
4:55 PM 28.4 °F 13.5 °F 6.8 °F 40% 30.22 in 9.0 mi SSW 26.5 mph 32.2 mph N/A   Clear
5:15 PM 28.4 °F 14.7 °F 8.6 °F 43% 30.22 in 8.0 mi SSW 21.9 mph 28.8 mph N/A   Clear
5:35 PM 28.4 °F 15.1 °F 6.8 °F 40% 30.21 in 10.0 mi SSW 20.7 mph 28.8 mph N/A   Clear
5:55 PM 28.4 °F 13.8 °F 6.8 °F 40% 30.21 in 10.0 mi SSW 25.3 mph 31.1 mph N/A   Clear
6:15 PM 28.4 °F 14.7 °F 6.8 °F 40% 30.20 in 10.0 mi SSW 21.9 mph 32.2 mph N/A   Clear
6:35 PM 28.4 °F 14.1 °F 6.8 °F 40% 30.20 in 10.0 mi SSW 24.2 mph 32.2 mph N/A   Clear
6:55 PM 26.6 °F 11.1 °F 8.6 °F 47% 30.18 in 10.0 mi SSW 26.5 mph 34.5 mph N/A   Clear
7:15 PM 26.6 °F 12.7 °F 8.6 °F 47% 30.18 in 10.0 mi SSW 20.7 mph 29.9 mph N/A   Clear
7:35 PM 26.6 °F 11.4 °F 8.6 °F 47% 30.16 in 10.0 mi SSW 25.3 mph 33.4 mph N/A   Clear
7:55 PM 26.6 °F 12.0 °F 8.6 °F 47% 30.15 in 10.0 mi SSW 23.0 mph 28.8 mph N/A   Clear
8:15 PM 26.6 °F 13.1 °F 10.4 °F 51% 30.15 in 10.0 mi SSW 19.6 mph 25.3 mph N/A   Clear
8:35 PM 26.6 °F 13.1 °F 10.4 °F 51% 30.13 in 10.0 mi SSW 19.6 mph 27.6 mph N/A   Clear
8:55 PM 26.6 °F 12.4 °F 10.4 °F 51% 30.12 in 10.0 mi SSW 21.9 mph 28.8 mph N/A   Clear
9:15 PM 26.6 °F 13.4 °F 10.4 °F 51% 30.11 in 10.0 mi SSW 18.4 mph 25.3 mph N/A   Clear
9:35 PM 28.4 °F 15.8 °F 10.4 °F 47% 30.10 in 10.0 mi SW 18.4 mph 26.5 mph N/A   Mostly Cloudy
9:55 PM 28.4 °F 15.8 °F 12.2 °F 51% 30.08 in 10.0 mi SW 18.4 mph 26.5 mph N/A   Overcast
10:15 PM 28.4 °F 15.4 °F 12.2 °F 51% 30.08 in 10.0 mi SW 19.6 mph 25.3 mph N/A   Overcast
10:35 PM 28.4 °F 15.1 °F 10.4 °F 47% 30.06 in 10.0 mi SW 20.7 mph 26.5 mph N/A   Mostly Cloudy
10:55 PM 28.4 °F 15.1 °F 10.4 °F 47% 30.04 in 10.0 mi SW 20.7 mph 26.5 mph N/A   Mostly Cloudy
11:15 PM 28.4 °F 15.1 °F 10.4 °F 47% 30.03 in 10.0 mi SW 20.7 mph 32.2 mph N/A   Scattered Clouds
11:35 PM 28.4 °F 15.4 °F 10.4 °F 47% 30.02 in 10.0 mi SW 19.6 mph 26.5 mph N/A   Mostly Cloudy
11:55 PM 30.2 °F 17.1 °F 8.6 °F 40% 30.00 in 10.0 mi SSW 21.9 mph 28.8 mph N/A   Overcast